sat.trackr.live / text

‹ back to catalog

ONEWEB-0578

NORAD 56067 · 2023-043X

PAYLOAD ACTIVE UNKNOWN

§ Identity

Operator
Country
UK
Launch date
2023-03-26
Launch site
SRILR
Launch vehicle
Mass (kg)
RCS (m²)

Purposes: comms

External: N2YO · Heavens-Above · Gunter

§ Orbital elements

Epoch: 2026-05-25T00:21:55.631808Z

Period
108.94 min
Inclination
87.9257°
Eccentricity
0.0002223
Mean motion
13.21824926 rev/d
Perigee alt
1,176.1 km
Apogee alt
1,179.4 km
Semi-major
7,555.9 km
B*
-1.1800e-4
RAAN
248.5822°
Arg perigee
106.7203°
Mean anomaly
253.4175°
Rev number
15,517

§ Raw data

ONEWEB-05781 56067U 23043X   26145.01522722 -.00000036  00000+0 -11800-3 0  99982 56067  87.9257 248.5822 0002223 106.7203 253.4175 13.21824926155177

JSON: /api/v1/satellites/56067 · /tle

For live sub-satellite position, see the globe view (requires WebGL).

§ Visibility from observer

Set your observer location to see the next 7 days of passes ≥ 10°. The values pass through the URL so the page stays shareable.

No JS? Fill the form by hand. The geolocation button needs JavaScript.